Regional Weather Roundup
Issued by NWS

Home | Current Version | Previous Version | Graphics & Text | Print | Product List | Glossary On
Versions: 1 2 3 4 5 6 7 8 9 10 11 12 13 14 15 16 17 18 19 20 21 22 23 24 25 26 27 28 29 30 31 32 33 34 35 36 37 38 39 40 41 42 43 44 45 46 47 48 49 50
000
ASUS43 KLOT 210803
RWRIL

ILLINOIS REGIONAL WEATHER ROUNDUP
NATIONAL WEATHER SERVICE CHICAGO/ROMEOVILLE IL
200 AM CST TUE FEB 21 2017

NOTE: "FAIR" INDICATES FEW OR NO CLOUDS BELOW 12,000 FEET WITH NO
SIGNIFICANT WEATHER AND/OR OBSTRUCTIONS TO VISIBILITY.

* THESE STATIONS ARE NOT UNDER NWS QUALITY CONTROL. THEY ALSO MAY NOT
  REPORT WEATHER SUCH AS PRECIPITATION OR FOG.

ILZ001-002-007-009-015-016-024-210900-
NORTHWEST ILLINOIS

CITY           SKY/WX    TMP DP  RH WIND       PRES   REMARKS
MOLINE         CLOUDY    58  55  90 W5        29.90R
STERLING*      CLOUDY    56  55  97 VRB3      29.89F
SAVANNA*       CLOUDY    53  52  99 S5        29.89S
$$

ILZ003-004-008-010-011-017-018-210900-
NORTH CENTRAL ILLINOIS

CITY           SKY/WX    TMP DP  RH WIND       PRES   REMARKS
ROCKFORD       LGT RAIN  56  54  93 S7        29.90F
FREEPORT*      DRIZZLE   54  54  99 S9        29.90S
ROCHELLE*      LGT RAIN  53  53  99 S5        29.91S
DE KALB*       DRIZZLE   54  52  94 SW6       29.92R
PERU*          RAIN      56  53  87 SW6       29.93S
$$

ILZ005-006-012>014-019>023-210900-
NORTHEAST ILLINOIS

CITY           SKY/WX    TMP DP  RH WIND       PRES   REMARKS
CHICAGO-OHARE  CLOUDY    59  47  64 SW12      29.90R
CHICAGO-MIDWAY CLOUDY    58  46  64 S13       29.92R
AURORA         CLOUDY    56  49  77 S5        29.92R
LANSING*       CLOUDY    55  49  80 S9        29.93R
JOLIET*        CLOUDY    58  50  73 S6        29.93R
WAUKEGAN       CLOUDY    58  47  66 SW10G18   29.89R
DUPAGE AIRPORT CLOUDY    57  47  69 S8        29.91R
KANKAKEE*      MOCLDY    53  46  77 CALM      29.95S
WHEELING       CLOUDY    58  46  64 S9        29.91R
MORRIS*        CLOUDY    53  48  81 CALM      29.92R
ROMEOVILLE*    CLOUDY    54  49  85 S7        29.93R
NORTHERLY ISL    N/A     58  45  62 S12         N/A
$$

LMZ740>746-210900-
SOUTHERN LAKE MICHIGAN

STATION/POSITION SKY/WX   TEMP    WIND        PRES    VSBY  WAVE
                          AIR SEA DIR/SP/G                  HT/PER
                          (F)     (DEG/KT/KT) (MB)    (MI)  (FT/S)
HARRISON CRIB              58     200/ 18/ 18   N/A
BURNHAM HARBOR             58     190/ 12/ 16   N/A
CALUMET HARBOR             58     180/  9/ 15 1012.4F
BURNS HARBOR               58     180/ 16/ 22 1013.9F
MICHIGAN CITY              57     140/ 14/ 17   N/A
$$

ILZ025>027-034>036-040-047-049-050-058-095>099-210900-
WEST-CENTRAL ILLINOIS

CITY           SKY/WX    TMP DP  RH WIND       PRES   REMARKS
QUINCY         FOG       57  57 100 SE6       29.93S VSB 1/2
GALESBURG*     DRIZZLE   56  56 100 SE7       29.90F
MACOMB*        LGT RAIN  56  56 100 SE5       29.94F
JACKSONVILLE*  HVY RAIN  58  56  94 NW3       29.93S
PITTSFIELD*    LGT RAIN  59  59 100 CALM      29.95R
$$

ILZ028>032-037-038-041>044-048-051>054-059>061-210900-
CENTRAL ILLINOIS

CITY           SKY/WX    TMP DP  RH WIND       PRES   REMARKS
PONTIAC        CLOUDY    57  53  86 S8        29.94S
BLOOMINGTON    CLOUDY    58  51  78 SW8       29.95S
DECATUR        CLOUDY    58  49  72 SW6       29.93S
PEORIA         LGT RAIN  58  57  97 NW5       29.93F
LACON*         RAIN      56  55  96 CALM      29.92S
LINCOLN*       RAIN      59  54  82 CALM      29.94R
SPRINGFIELD    LGT RAIN  59  54  83 SW3       29.94R
TAYLORVILLE    CLOUDY    59  51  74 S7        29.93F
$$

ILZ033-039-045-046-055>057-062-063-210900-
EAST-CENTRAL ILLINOIS

CITY           SKY/WX    TMP DP  RH WIND       PRES   REMARKS
CHAMPAIGN      CLOUDY    57  48  72 S6        29.94S
RANTOUL*       CLOUDY    56  49  79 S5        29.95R
MATTOON        MOCLDY    58  49  72 S7        29.94R
PARIS*         CLOUDY    52  47  84 SE5       29.97S
$$

ILZ079-100>102-210900-
SOUTHWEST ILLINOIS

CITY           SKY/WX    TMP DP  RH WIND       PRES   REMARKS
ALTON          CLOUDY    60  55  82 SW7       29.94S
BELLEVILLE     CLOUDY    58  55  88 CALM      29.93R
CAHOKIA*       LGT RAIN  62  56  80 W3        29.94R
SPARTA*        CLOUDY    60  51  71 NW5       29.95R
$$

ILZ064>066-069>071-074>076-080>082-084>086-088>090-092>094-210900-
SOUTH-CENTRAL ILLINOIS

CITY           SKY/WX    TMP DP  RH WIND       PRES   REMARKS
CARBONDALE     CLOUDY    62  50  64 VRB5      29.93R
CAIRO*         CLOUDY    61  50  69 E5        29.91F
EFFINGHAM*     CLOUDY    56  50  81 NE3       29.94F
MARION         CLOUDY    64  50  59 S9        29.94S
MT. VERNON     CLOUDY    55  50  83 CALM      29.94F
CENTRALIA*     CLOUDY    61  52  72 S7        29.94R
SALEM*         PTCLDY    63  50  62 S3        29.93F
METROPOLIS*    CLOUDY    57  49  75 CALM      29.94F
$$

ILZ067-068-072-073-078-083-087-091-210900-
SOUTHEAST ILLINOIS

CITY           SKY/WX    TMP DP  RH WIND       PRES   REMARKS
LAWRENCEVILLE  CLOUDY    54  46  74 SE3       29.96S
FLORA*         CLOUDY    56  49  78 CALM      29.95S
FAIRFIELD*     CLOUDY    59  49  70 S3        29.94S
HARRISBURG*    CLOUDY    59  50  72 CALM      29.95S
ROBINSON*      PTCLDY    51  46  83 CALM      29.96S
CARMI*         CLOUDY    54  49  85 SE7       29.95R HAZE
$$

ABBREVIATIONS USED IN REMARKS
   TC - TEMPERATURE IN CELSIUS
  WCI - WIND CHILL INDEX
   HX - HEAT INDEX
  VSB - VISIBILITY
$$





USA.gov is the U.S. government's official web portal to all federal, state and local government web resources and services.